User: anonymous   Login
Location: Caltech
(34.1382°N, 118.1253°W)
Time: 16:48:54
(UTC-07:00)
Language:

Meteor 1-11 Rocket - Orbit

View from above orbital plane
View from above orbital plane
View from above satellite
View from above satellite

Ground track
Ground track

The orbit data is extracted from the following two-line orbital elements,

1 05918U 72022B   16274.43633715  .00000070  00000-0  35187-4 0  9993
2 05918  81.2380 217.1373 0058440 337.7875  22.0763 14.05807743281495
Epoch (UTC): 30 September 2016 10:28:19
Eccentricity: 0.0058440
inclination: 81.2380°
perigee height: 831 km
apogee height: 916 km
right ascension of ascending node: 217.1373°
argument of perigee: 337.7875°
revolutions per day: 14.05807743
mean anomaly at epoch: 22.0763°
orbit number at epoch: 28149

The dashed part of the orbit path shows where the satellite is in the earth's shadow,  

DLR